Torna al catalogo

USA 207

AttivoMilitareGEO
NORAD 35815·PAYLOAD·🇺🇸 United States

Lanciato Sep 8, 2009 da Cape Canaveral Space Force Station

Loading…

TLE

AggiornatoSource: Mike McCants

Epoca: Sep 14, 2026, 05:30 UTC

1 35815U 09047A   26257.22929376  .00000000  00000-0  00000-0 0    07
2 35815   1.4259  87.7532 0005954 299.6138  60.3314  1.00263576  5291

Traccia USA 207 in tempo reale con AllMySat

Download on the App Store